Regional Weather Roundup
Issued by NWS

Home | Current Version | Previous Version | Graphics & Text | Print | Product List | Glossary On
Versions: 1 2 3 4 5 6 7 8 9 10 11 12 13 14 15 16 17 18 19 20 21 22 23 24 25 26 27 28 29 30 31 32 33 34 35 36 37 38 39 40 41 42 43 44 45 46 47 48 49 50
000
ASUS45 KTFX 010004
RWRMT
MONTANA REGIONAL WEATHER ROUNDUP
NATIONAL WEATHER SERVICE GREAT FALLS MT
600 PM MDT MON AUG 31 2015

NOTE: "FAIR" INDICATES FEW OR NO CLOUDS BELOW 12000 FEET WITH NO
SIGNIFICANT WEATHER AND/OR OBSTRUCTIONS TO VISIBILITY.

MTZ001>007-043-010100-
WEST OF THE DIVIDE

CITY           SKY/WX    TMP DP  RH WIND       PRES   REMARKS
KALISPELL      PTCLDY    70  39  32 W13       29.91F
MISSOULA       SUNNY     71  40  32 W8        29.94F
BUTTE          SUNNY     73  31  21 SW12G17   29.99F
MULLAN PASS    PTSUNNY   52  41  66 CALM      30.05F
DEER LODGE       N/A     72  37  28 N8        30.00F
EUREKA           N/A     64  43  45 SW3       29.94F
HAMILTON         N/A     73  43  33 N10       29.92F
LIBBY            N/A     66  43  42 CALM      29.93F
$$

MTZ008-052>055-010100-
SOUTHWEST MONTANA

CITY           SKY/WX    TMP DP  RH WIND       PRES   REMARKS
BOZEMAN        SUNNY     79  37  22 CALM      29.93F
DILLON           N/A     78  32  18 SW9       29.96F
W YELLOWSTONE  MOSUNNY   68  32  26 SW21G29   30.11F
$$

MTZ009-010-012-014-046-048-049-054-010100-
EAST SLOPES AND CENTRAL MONTANA

CITY           SKY/WX    TMP DP  RH WIND       PRES   REMARKS
CUT BANK       CLOUDY    64  36  35 W15       29.87F
GREAT FALLS    SUNNY     76  35  22 SW20G29   29.87F
MALMSTROM AFB  SUNNY     76  35  23 SW16G23   29.87F
HELENA         SUNNY     78  37  22 W15       29.90F
$$

MTZ011-013-016-021-045-047-050-051-010100-
NORTH CENTRAL MONTANA

CITY           SKY/WX    TMP DP  RH WIND       PRES   REMARKS
HAVRE          PTSUNNY   79  36  21 NW15G23   29.79F
LEWISTOWN      MOSUNNY   77  34  21 NW6       29.90S
N BAR RANCH      N/A     75  34  22 NW8G16    29.94S
CHINOOK          N/A     79  39  24 W15       29.78S
FORT BENTON      N/A     79  36  21 SW12G24   29.84S
$$

MTZ017>020-022>027-061-062-010100-
NORTHEAST MONTANA

CITY           SKY/WX    TMP DP  RH WIND       PRES   REMARKS
GLASGOW        SUNNY     74  38  27 SW10      29.83F
JORDAN           N/A     77  35  21 NW12      29.86R
SIDNEY         SUNNY     79  34  19 W8        29.83F
WOLF POINT     MOSUNNY   76  38  25 W8        29.85R
PLENTYWOOD       N/A     73  39  29 SW15      29.83R
$$

MTZ028>42-056>058-010100-
SOUTHCENTRAL AND SOUTHEAST MONTANA

CITY           SKY/WX    TMP DP  RH WIND       PRES   REMARKS
BAKER          SUNNY     78  41  26 SW12      29.92S
BILLINGS       PTSUNNY   82  31  15 SW8       29.88F
LIVINGSTON     MOSUNNY   82  29  14 SW15G23   29.91F
MILES CITY     SUNNY     81  43  26 S7        29.85F
FORSYTH          N/A     82  30  15 SW7       29.85S
$$

REGIONAL REPORTS...DAKOTAS

CITY           SKY/WX    TMP DP  RH WIND       PRES   REMARKS
WILLISTON      SUNNY     76  34  21 W10       29.84S
MINOT          SUNNY     76  37  24 W12       29.83R
DICKINSON      SUNNY     77  40  26 W12       29.89R
BISMARCK       MOSUNNY   81  43  26 W8        29.87S
GRAND FORKS    CLOUDY    75  58  55 SW7       29.81R
FARGO          CLOUDY    81  65  58 S3        29.82S
BUFFALO SD       N/A     78  45  30 SE5       29.87S
RAPID CITY     PTSUNNY   71  59  65 SE6       29.95F
$$

REGIONAL REPORTS...WYOMING/IDAHO/WASHINGTON

CITY           SKY/WX    TMP DP  RH WIND       PRES   REMARKS
GILLETTE       SUNNY     86  31  13 N3        29.90F
SHERIDAN       SUNNY     83  41  22 N7        29.90S
BUFFALO WY     SUNNY     81  42  25 N14       29.96R
CODY           MOSUNNY   81  28  15 SW9       29.95S
YELLOWSTONE LA   N/A     60  28  29 VRB5      30.23S
IDAHO FALLS    SUNNY     78  29  16 SW15      30.02F
SALMON         SUNNY     79  39  24 N8        29.88F
BOISE          MOSUNNY   81  38  21 NW5       29.92F
SPOKANE        CLOUDY    69  44  40 S14       29.92F
$$

REGIONAL REPORTS...ALBERTA

CITY           SKY/WX    TMP DP  RH WIND       PRES   REMARKS
$$

REGIONAL REPORTS...SASKATCHEWAN

CITY           SKY/WX    TMP DP  RH WIND       PRES   REMARKS
$$


USA.gov is the U.S. government's official web portal to all federal, state and local government web resources and services.